Regional Weather Roundup
Issued by NWS

Home | Current Version | Previous Version | Graphics & Text | Print | Product List | Glossary On
Versions: 1 2 3 4 5 6 7 8 9 10 11 12 13 14 15 16 17 18 19 20 21 22 23 24 25 26 27 28 29 30 31 32 33 34 35 36 37 38 39 40 41 42 43 44 45 46 47 48 49 50
000
ASUS43 KDTX 272110
RWRMI
MICHIGAN HOURLY REGIONAL WEATHER ROUNDUP
NATIONAL WEATHER SERVICE DETROIT/PONTIAC MI
500 PM EDT TUE SEP 27 2016

NOTE: "FAIR" INDICATES FEW OR NO CLOUDS BELOW 12,000 FEET WITH NO
SIGNIFICANT WEATHER AND/OR OBSTRUCTION TO VISIBILITY.

MIZ047>049-052>055-059>063-066>070-074>076-081>083-272200-
SOUTHEAST LOWER MICHIGAN

CITY           SKY/WX    TMP DP  RH WIND       PRES   REMARKS
ADRIAN         SUNNY     68  30  24 W17G24    29.76S
ALMA           CLOUDY    58  48  68 W10G23    29.73R
ANN ARBOR      SUNNY     68  34  28 SW17G25   29.73S
BAD AXE        CLOUDY    59  46  61 W3        29.71R
CARO           CLOUDY    61  45  56 SW13G21   29.71R
DETROIT CITY   MOSUNNY   68  32  26 SW16G28   29.73R
DETROIT        PTSUNNY   69  32  25 SW23      29.75R
FLINT          CLOUDY    63  44  50 W13       29.72R
GROSSE ILE     SUNNY     70  32  24 W13G20    29.73S
HILLSDALE      SUNNY     68  30  24 W10G23    29.75S
HOWELL         PTSUNNY   64  39  40 W12       29.73S

CITY           SKY/WX    TMP DP  RH WIND       PRES   REMARKS
JACKSON        MOSUNNY   66  37  34 SW16G26   29.74S
LAMBERTVILLE   SUNNY     71  34  25 SW13      29.75S
LANSING        CLOUDY    62  42  47 W13       29.74R
LAPEER         CLOUDY    64  40  41 W8G17     29.72R
MASON          CLOUDY    64  41  44 W13G20    29.73S
MONROE         SUNNY     71  35  27 W13G23    29.74S
MT. CLEMENS    PTSUNNY   68  41  37 SW14      29.71S
PONTIAC        CLOUDY    65  38  36 SW21G30   29.72R
PORT HURON     MOSUNNY   66  43  42 SW7       29.72S
TRI CITIES     CLOUDY    60  46  59 SW16G24   29.72R
MIDLAND        CLOUDY    59  46  61 SW10G16   29.70S
TROY           PTSUNNY   69  32  25 SW16G23   29.75R
SAGINAW HB     CLOUDY    61  45  55 SW13      29.71R
$$
MIZ043>046-050>051-056>058-064>065-071>073-077>080-272200-
SOUTHWEST LOWER MICHIGAN

CITY           SKY/WX    TMP DP  RH WIND       PRES   REMARKS
BATTLE CREEK   MOSUNNY   67  38  34 W20G29    29.74S
BENTON HARBOR  MOSUNNY   66  37  34 W18G28    29.74S
BIG RAPIDS     CLOUDY    55  50  85 SW6       29.71R
COLDWATER      SUNNY     68  30  24 W12G17    29.75S
FREMONT        CLOUDY    55  45  67 W5        29.71S
HOLLAND        CLOUDY    61  45  55 W12       29.74S
GRAND RAPIDS   CLOUDY    60  43  53 W16       29.74R
IONIA          CLOUDY    59  43  55 W8        29.73R
KALAMAZOO      MOSUNNY   67  35  30 W17G29    29.75R
LUDINGTON      CLOUDY    56  47  71 W12G18    29.68S
MARSHALL       PTSUNNY   66  37  34 SW14      29.74R
MOUNT PLEASANT CLOUDY    58  47  65 W8G16     29.71R
MUSKEGON       CLOUDY    59  45  59 W14       29.72S
SOUTH HAVEN    CLOUDY    65  47  50 NW10      29.74R
$$
MIZ016>042-272200-
NORTHERN LOWER MICHIGAN

CITY           SKY/WX    TMP DP  RH WIND       PRES   REMARKS
ALPENA         LGT RAIN  56  49  77 SW6       29.66R
BEAVER ISLAND  RAIN      51  48  91 W8        29.61R
BELLAIRE       RAIN      53  51  92 W3        29.64R
CADILLAC       RAIN      52  49  90 SW12      29.67R
CHARLEVOIX     RAIN      53  49  86 W15       29.65R
FRANKFORT      RAIN      54  50  87 W13G25    29.65R
GAYLORD        LGT RAIN  53  47  79 SW13      29.63R
GRAYLING       CLOUDY    55  48  77 SW6       29.66R
HARBOR SPRINGS RAIN      53  52  96 W6        29.61R
HOUGHTON LAKE  CLOUDY    53  49  86 SW12      29.68R
MANISTEE       CLOUDY    57  47  69 W15       29.66R
OSCODA         CLOUDY    55  52  89 S7        29.68S
PELLSTON       LGT RAIN  54  51  90 SW3       29.61S
ROGERS CITY    CLOUDY    57  50  78 S6        29.64R
TRAVERSE CITY  LGT RAIN  55  51  86 W7        29.64R FOG
$$
MIZ007>008-015-272200-
EASTERN UPPER MICHIGAN

CITY           SKY/WX    TMP DP  RH WIND       PRES   REMARKS
KINROSS        LGT RAIN  54  52  94 SW3       29.60R
MACKINAC ISLAN RAIN      53  53 100 W6        29.60R
NEWBERRY       LGT RAIN  51  50  97 SW8       29.58R
S. S. MARIE    LGT RAIN  55  52  89 CALM      29.58R
MUNISING         N/A     54  51  90 W6        29.57R
$$
MIZ004>006-011>014-085-272200-
CENTRAL UPPER MICHIGAN

CITY           SKY/WX    TMP DP  RH WIND       PRES   REMARKS
MANISTIQUE     LGT RAIN  51  49  92 W3        29.60R
ESCANABA       LGT RAIN  53  51  93 W8        29.61R
MENOMINEE      LGT RAIN  54  52  94 VRB6      29.65
SAWYER-GWINN   CLOUDY    52  46  82 NW13      29.59R
$$
MIZ001>003-009>011-084-272200-
WESTERN UPPER MICHIGAN

CITY           SKY/WX    TMP DP  RH WIND       PRES   REMARKS
IRON MOUNTAIN  CLOUDY    51  46  83 NW6       29.62R
HOUGHTON       CLOUDY    52  49  89 NW10      29.59R
COPPER HARBOR    N/A     57  53  86 N20       29.55R
IRONWOOD       LGT RAIN  48  47  96 NW8       29.68R FOG
$$

ABBREVIATIONS USED IN REMARKS
   TC - TEMPERATURE IN CELSIUS
  WCI - WIND CHILL INDEX
   HX - HEAT INDEX
  VSB - VISIBILITY




USA.gov is the U.S. government's official web portal to all federal, state and local government web resources and services.